Weather in Panagia

Greece     37°36′59″N   23°09′15″E
temp.,
°C
wind,
m/s
gust,
m/s
humid.,
%
clouds,
%
prec.,
mm/h
press.,
hPa
HPBL,
m
21 june, mon
mon2100:00+23nnw12702 0.0 101257
03:00+22nnw116841 0.0 101112
06:00+22nne11692 0.0 101111
09:00+26ne11501 0.0 1012449
12:00+30se23425 0.0 10121360
15:00+31se34415 0.0 10111418
18:00+28s33503 0.3 1011617
21:00+25nnw1267100 0.8 1012187
22 june, tue
tue2200:00+24nnw22755 0.0 101367
03:00+23w1273100 0.0 101232
06:00+22ne22730 0.0 101218
09:00+27sse11510 0.0 1013365
12:00+32se12400 0.0 1013940
15:00+33se22390 0.0 1012965
18:00+31ssw22421 0.0 1013850
21:00+27wsw1258100 0.0 1013114
23 june, wed
wed2300:00+27wsw2253100 0.0 101345
03:00+25nnw01550 0.0 101311
06:00+25ne00530 0.0 101311
09:00+29ene11390 0.0 1014305
12:00+33e12290 0.0 1014913
15:00+35se22260 0.0 10141036
18:00+34s22310 0.0 1013979
21:00+28sw11510 0.0 101555
24 june, thu
thu2400:00+27w11540 0.0 101517
03:00+26nnw22570 0.0 101519
06:00+25nnw12560 0.0 101514
09:00+31nnw12350 0.0 1015349
12:00+35ene25270 0.0 10151200
15:00+37ene25220 0.0 10142025
18:00+36e14250 0.0 10141013
21:00+31ssw11380 0.0 101425
25 june, fri
fri2500:00+28n11485 0.0 101515
03:00+26wnw12560 0.0 101417
06:00+26nnw22477 0.0 101415
09:00+31nne22353 0.0 1015422
12:00+34ene13270 0.0 10141170
15:00+36ne14250 0.0 10141653
18:00+35se23290 0.0 10131093
21:00+30wsw22430 0.0 101353